![](https://secure.gravatar.com/avatar/900f734c10632692418d1b47311b6af5.jpg?s=120&d=mm&r=g)
SB KEPS @ AMSAT $ORB11062.O Orbital Elements 11062.OSCAR
HR AMSAT ORBITAL ELEMENTS FOR OSCAR SATELLITES FROM WA5QGD FORT WORTH,TX March 3, 2011 Send Subscribe/unsubscribe to KEPS at http://www.amsat.org/mailman/listinfo/keps BID: ORB11062.O TO ALL RADIO AMATEURS BT
Satellite: AO-07 Catalog number: 07530 Epoch time: 11061.85448544 Element set: 17 Inclination: 101.3952 deg RA of node: 072.5875 deg Eccentricity: 0.0012113 Arg of perigee: 127.4528 deg Mean anomaly: 232.7639 deg Mean motion: 12.53581314 rev/day Decay rate: -2.7e-07 rev/day^2 Epoch rev: 66086 Checksum: 285
Satellite: FO-29 Catalog number: 24278 Epoch time: 11061.93552366 Element set: 0556 Inclination: 098.5288 deg RA of node: 220.4661 deg Eccentricity: 0.0350866 Arg of perigee: 172.5551 deg Mean anomaly: 188.0995 deg Mean motion: 13.52958173 rev/day Decay rate: -4.0e-08 rev/day^2 Epoch rev: 71809 Checksum: 339
Satellite: SO-33 Catalog number: 25509 Epoch time: 11061.51273896 Element set: 0916 Inclination: 031.4320 deg RA of node: 127.6228 deg Eccentricity: 0.0353268 Arg of perigee: 028.6850 deg Mean anomaly: 333.2762 deg Mean motion: 14.28370443 rev/day Decay rate: 1.23e-06 rev/day^2 Epoch rev: 64501 Checksum: 284
Satellite: RS-22 Catalog number: 27939 Epoch time: 11062.66335785 Element set: 41 Inclination: 097.8597 deg RA of node: 281.6257 deg Eccentricity: 0.0013120 Arg of perigee: 323.6785 deg Mean anomaly: 036.3527 deg Mean motion: 14.63517759 rev/day Decay rate: 2.05e-06 rev/day^2 Epoch rev: 39690 Checksum: 327
Satellite: VO-52 Catalog number: 28650 Epoch time: 11061.62014122 Element set: 0732 Inclination: 097.6571 deg RA of node: 109.4577 deg Eccentricity: 0.0027610 Arg of perigee: 148.6134 deg Mean anomaly: 211.6770 deg Mean motion: 14.81920703 rev/day Decay rate: 1.59e-06 rev/day^2 Epoch rev: 31496 Checksum: 285
Satellite: SO-67 Catalog number: 35870 Epoch time: 11062.76748554 Element set: 613 Inclination: 097.2961 deg RA of node: 109.5287 deg Eccentricity: 0.0001460 Arg of perigee: 277.2231 deg Mean anomaly: 218.5838 deg Mean motion: 15.21384260 rev/day Decay rate: 1.152e-05 rev/day^2 Epoch rev: 8091 Checksum: 306
Satellite: HO-68 Catalog number: 36122 Epoch time: 11062.73970298 Element set: 162 Inclination: 100.4291 deg RA of node: 125.0979 deg Eccentricity: 0.0008078 Arg of perigee: 104.8579 deg Mean anomaly: 255.3432 deg Mean motion: 13.16284352 rev/day Decay rate: -4.5e-07 rev/day^2 Epoch rev: 5836 Checksum: 301
/EX SB KEPS @ AMSAT $ORB11062.D Orbital Elements 11062.MICROS
HR AMSAT ORBITAL ELEMENTS FOR THE MICROSATS FROM WA5QGD FORT WORTH,TX March 3, 2011 Send Subscribe/unsubscribe to KEPS at http://www.amsat.org/mailman/listinfo/keps BID: ORB11062.D TO ALL RADIO AMATEURS BT
Satellite: UO-11 Catalog number: 14781 Epoch time: 11061.71898775 Element set: 0486 Inclination: 098.0176 deg RA of node: 118.6990 deg Eccentricity: 0.0009945 Arg of perigee: 118.6970 deg Mean anomaly: 241.5265 deg Mean motion: 14.79896111 rev/day Decay rate: 1.58e-06 rev/day^2 Epoch rev: 45004 Checksum: 335
Satellite: AO-16 Catalog number: 20439 Epoch time: 11061.73932052 Element set: 0131 Inclination: 098.3705 deg RA of node: 014.9859 deg Eccentricity: 0.0011576 Arg of perigee: 116.2290 deg Mean anomaly: 244.0086 deg Mean motion: 14.31897749 rev/day Decay rate: 3.6e-07 rev/day^2 Epoch rev: 10238 Checksum: 290
Satellite: LO-19 Catalog number: 20442 Epoch time: 11062.74383447 Element set: 40 Inclination: 098.3333 deg RA of node: 020.7173 deg Eccentricity: 0.0012768 Arg of perigee: 108.7259 deg Mean anomaly: 251.5304 deg Mean motion: 14.32125310 rev/day Decay rate: 8.0e-08 rev/day^2 Epoch rev: 10270 Checksum: 253
Satellite: AO-27 Catalog number: 22825 Epoch time: 11061.46678217 Element set: 0762 Inclination: 098.5187 deg RA of node: 008.1826 deg Eccentricity: 0.0007765 Arg of perigee: 225.7538 deg Mean anomaly: 134.2991 deg Mean motion: 14.29328207 rev/day Decay rate: -6.0e-07 rev/day^2 Epoch rev: 90894 Checksum: 328
Satellite: IO-26 Catalog number: 22826 Epoch time: 11061.41571320 Element set: 0500 Inclination: 098.5138 deg RA of node: 008.6432 deg Eccentricity: 0.0008215 Arg of perigee: 221.4068 deg Mean anomaly: 138.6483 deg Mean motion: 14.29588585 rev/day Decay rate: 5.0e-07 rev/day^2 Epoch rev: 90905 Checksum: 288
Satellite: GO-32 Catalog number: 25397 Epoch time: 11061.96379166 Element set: 0422 Inclination: 098.3217 deg RA of node: 060.2348 deg Eccentricity: 0.0000806 Arg of perigee: 177.0691 deg Mean anomaly: 183.0509 deg Mean motion: 14.23197593 rev/day Decay rate: 3.0e-07 rev/day^2 Epoch rev: 65685 Checksum: 307
Satellite: NO-44 Catalog number: 26931 Epoch time: 11061.84488080 Element set: 692 Inclination: 067.0506 deg RA of node: 257.5371 deg Eccentricity: 0.0007039 Arg of perigee: 271.6407 deg Mean anomaly: 088.3932 deg Mean motion: 14.29636427 rev/day Decay rate: 1.43e-06 rev/day^2 Epoch rev: 49172 Checksum: 313
Satellite: SO-50 Catalog number: 27607 Epoch time: 11061.92476130 Element set: 0406 Inclination: 064.5598 deg RA of node: 290.5516 deg Eccentricity: 0.0060897 Arg of perigee: 345.9384 deg Mean anomaly: 014.0002 deg Mean motion: 14.71653317 rev/day Decay rate: 4.0e-08 rev/day^2 Epoch rev: 44045 Checksum: 287
Satellite: CO-55 Catalog number: 27844 Epoch time: 11062.61315431 Element set: 57 Inclination: 098.7085 deg RA of node: 072.8427 deg Eccentricity: 0.0009944 Arg of perigee: 138.6514 deg Mean anomaly: 221.5412 deg Mean motion: 14.20772846 rev/day Decay rate: 9.3e-07 rev/day^2 Epoch rev: 39792 Checksum: 313
Satellite: CO-57 Catalog number: 27848 Epoch time: 11061.55425358 Element set: 0004 Inclination: 098.7147 deg RA of node: 070.9534 deg Eccentricity: 0.0009990 Arg of perigee: 146.9587 deg Mean anomaly: 213.2234 deg Mean motion: 14.20557150 rev/day Decay rate: 7.3e-07 rev/day^2 Epoch rev: 39772 Checksum: 318
Satellite: AO-51 Catalog number: 28375 Epoch time: 11061.50668834 Element set: 909 Inclination: 098.0864 deg RA of node: 045.6236 deg Eccentricity: 0.0085044 Arg of perigee: 033.8309 deg Mean anomaly: 326.8268 deg Mean motion: 14.40727467 rev/day Decay rate: 6.5e-07 rev/day^2 Epoch rev: 35070 Checksum: 320
Satellite: CP3 Catalog number: 31129 Epoch time: 11062.60951959 Element set: 811 Inclination: 097.9109 deg RA of node: 092.8806 deg Eccentricity: 0.0102755 Arg of perigee: 148.3927 deg Mean anomaly: 212.3521 deg Mean motion: 14.52385291 rev/day Decay rate: 2.98e-06 rev/day^2 Epoch rev: 20551 Checksum: 302
Satellite: CO-65 Catalog number: 32785 Epoch time: 11061.39588978 Element set: 0930 Inclination: 097.8615 deg RA of node: 127.2828 deg Eccentricity: 0.0015163 Arg of perigee: 160.4431 deg Mean anomaly: 199.7383 deg Mean motion: 14.81839191 rev/day Decay rate: 1.09e-06 rev/day^2 Epoch rev: 15372 Checksum: 338
Satellite: KKS-1 Catalog number: 33493 Epoch time: 11062.66679885 Element set: 361 Inclination: 098.1090 deg RA of node: 189.8604 deg Eccentricity: 0.0020334 Arg of perigee: 025.2905 deg Mean anomaly: 334.9301 deg Mean motion: 14.81352996 rev/day Decay rate: 6.78e-06 rev/day^2 Epoch rev: 11389 Checksum: 320
Satellite: SOHLA-1 Catalog number: 33496 Epoch time: 11062.51566337 Element set: 348 Inclination: 098.0682 deg RA of node: 173.4845 deg Eccentricity: 0.0007683 Arg of perigee: 098.8504 deg Mean anomaly: 261.3580 deg Mean motion: 14.69561835 rev/day Decay rate: 2.22e-06 rev/day^2 Epoch rev: 11296 Checksum: 318
Satellite: TISAT-1 Catalog number: 36799 Epoch time: 11062.70079988 Element set: 635 Inclination: 098.1138 deg RA of node: 129.8695 deg Eccentricity: 0.0014223 Arg of perigee: 256.8376 deg Mean anomaly: 103.1260 deg Mean motion: 14.80335008 rev/day Decay rate: 4.57e-06 rev/day^2 Epoch rev: 3470 Checksum: 311
Satellite: STUDSAT Catalog number: 36801 Epoch time: 11062.77111686 Element set: 142 Inclination: 098.1157 deg RA of node: 129.7894 deg Eccentricity: 0.0012972 Arg of perigee: 244.7384 deg Mean anomaly: 115.2485 deg Mean motion: 14.80055226 rev/day Decay rate: 1.413e-05 rev/day^2 Epoch rev: 3470 Checksum: 286
Satellite: RAX Catalog number: 37223 Epoch time: 11047.27696737 Element set: 0084 Inclination: 071.9744 deg RA of node: 305.5778 deg Eccentricity: 0.0020243 Arg of perigee: 156.1195 deg Mean anomaly: 204.0952 deg Mean motion: 14.77236729 rev/day Decay rate: 2.10e-06 rev/day^2 Epoch rev: 01303 Checksum: 284
Satellite: OOREOS Catalog number: 37224 Epoch time: 11043.43618410 Element set: 0081 Inclination: 071.9758 deg RA of node: 314.1598 deg Eccentricity: 0.0019424 Arg of perigee: 162.0076 deg Mean anomaly: 198.1778 deg Mean motion: 14.76892599 rev/day Decay rate: 2.19e-06 rev/day^2 Epoch rev: 01245 Checksum: 307
Satellite: NANOSALD Catalog number: 37225 Epoch time: 11061.29826209 Element set: 0063 Inclination: 071.9782 deg RA of node: 274.6600 deg Eccentricity: 0.0027514 Arg of perigee: 083.3818 deg Mean anomaly: 277.0830 deg Mean motion: 14.79496660 rev/day Decay rate: 3.0671e-04 rev/day^2 Epoch rev: 00620 Checksum: 295
Satellite: FAST1-2 Catalog number: 37227 Epoch time: 11061.48743218 Element set: 0092 Inclination: 071.9726 deg RA of node: 274.5102 deg Eccentricity: 0.0015984 Arg of perigee: 122.6347 deg Mean anomaly: 237.6379 deg Mean motion: 14.76396633 rev/day Decay rate: 1.14e-06 rev/day^2 Epoch rev: 01511 Checksum: 295
/EX SB KEPS @ AMSAT $ORB11062.W Orbital Elements 11062.WEATHER
HR AMSAT ORBITAL ELEMENTS FOR WEATHER SATELLITES FROM WA5QGD FORT WORTH,TX March 3, 2011 Send Subscribe/unsubscribe to KEPS at http://www.amsat.org/mailman/listinfo/keps BID: ORB11062.W TO ALL RADIO AMATEURS BT
Satellite: NOAA-10 Catalog number: 16969 Epoch time: 11062.15675212 Element set: 414 Inclination: 098.6308 deg RA of node: 093.3319 deg Eccentricity: 0.0012261 Arg of perigee: 171.4831 deg Mean anomaly: 188.6554 deg Mean motion: 14.27445474 rev/day Decay rate: -1.4e-07 rev/day^2 Epoch rev: 27252 Checksum: 293
